↑ Terug naar Januari ’16

08-01-2016

Tijdstempel   Call Naam Qth Signaal
8-1-2016 23:51:28 rodekater willem reeuwijk 5/5
8-1-2016 23:33:54 19ab01 jan ermelo 5/5
8-1-2016 23:29:28 cq37 joris rotterdam 2/4
8-1-2016 23:28:37 19wo1518 gertjan nieuwegein 0/1
8-1-2016 23:24:06 19fb034 patrick cuijk 3/5
8-1-2016 23:20:47 19al04 andries ermelo 5/5
8-1-2016 23:18:05 13tl123 peter Wuppertal (DUI) 3/4
8-1-2016 23:09:39 cq65 martin utrecht 5/9
8-1-2016 23:05:09 19rf432 nico maarsen 5/5
8-1-2016 23:02:42 19wrc013 jeroen moerdijk 3/4
8-1-2016 22:58:54 19wo1809 bello denhaag 5/5
8-1-2016 22:53:21 19wac3033 wim zwijndrecht 5/6
8-1-2016 22:48:44 cq61 hans hi ambacht 5/3
8-1-2016 22:47:23 19ob090 gerrit zwijdrecht 5/3
8-1-2016 22:38:09 19rdx001 theo dodewaard 5/7
8-1-2016 22:35:24 19rf195 wim amerfoort 5/7
8-1-2016 22:32:17 cq75 arie drimmelen 5/5
8-1-2016 22:29:12 cq70 theo wijchen 5/5
8-1-2016 22:22:07 19rf058 evert tiel 5/9
8-1-2016 22:19:51 cq52 ronald baarn 5/8
8-1-2016 22:16:44 cq86 edwin zeist 5/9
8-1-2016 22:15:03 cq93 eduard zeist 5/8
8-1-2016 22:11:03 cq71 stef geldermalsen 5/9
8-1-2016 22:08:52 cq55 brano ede 5/9
8-1-2016 22:07:48 19wo1814 dion ede 5/9
8-1-2016 22:06:20 cq31 mels ede 5/9
8-1-2016 22:04:28 cq84 martijn nijmegen 5/5
8-1-2016 21:14:44 cq17 cor culemborg 5/9
8-1-2016 21:14:10 cq21 sven culemborg 5/9
8-1-2016 21:13:00 cq15 stef buren 5/9
8-1-2016 21:12:39 cq50 emme culemborg 5/9
8-1-2016 21:12:05 cq44 marco culemborg 5/9
8-1-2016 21:07:19 cq12 rob culemborg 5/9
8-1-2016 21:06:45 cq33 Ron Nieuwegein 5/9